Probability
0 0 0 0 0 0 0 0 0 0 0 0 0 0 0 0 0 0 0 0 0 0 0 0 0 0 0 0 0 0 0 0 0 0 0 0 0 0 0 0 0 0 0 0
0 0 0 0 0 0 0 0 0 0 0 0 0 0 0 0 0 0 0 0 0 0 0 0 0 0 0 0 0 0 0 0 0 0 0 0 0 0 0 0 0 0 0 0
0 0 0 0 0 0 0 0 0 0 0 0 0 0 0 0 0 0 0 0 0 0 0 0 0 0 0 0 0 0 0 0 0 0 0 0 0 0 0 0 0 0 0 0
0 0 0 0 0 0 0 0 0 0 0 0 0 0 0 0 0 0 0 0 0 0 0 0 0 0 0 0 0 0 0 0 0 0 0 0 0 0 0 0 0 0 0 0
0 0 0 0 0 0 0 0 0 0 0 0 0 0 0 0 0 0 0 0 0 0 0 0 0 0 0 0 0 0 0 0 0 0 0 0 0 0 0 0 0 0 0 0
0 0 0 0 0 0 0 0 0 0 0 0 0 0 0 0 0 0 0 0 0 0 0 0 0 0 0 0 0 0 0 0 0 0 0 0 0 0 0 0 0 0 0 0
0 0 0 0 0 0 0 0 0 0 0 0 0 0 0 0 0 0 0 0 0 0 0 0 0 0 0 0 0 0 0 0 0 0 0 0 0 0 0 0 0 0 0 0
0 0 0 0 0 0 0 0 0 0 0 0 0 0 0 0 0 0 0 0 0 0 0 0 0 0 0 0 0 0 0 0 0 0 0 0 0 0 0 0 0 0 0 0
0 0 0 0 0 0 0 0 0 0 0 0 0 0 0 0 0 0 0 0 0 0 0 0 0 0 0 0 0 0 0 0 0 0 0 0 0 0 0 0 0 0 0 0
0 0 0 0 0 0 0 0 0 0 0 0 0 0 0 0 0 0 0 0 0 0 0 0 0 0 0 0 0 0 0 0 0 0 0 0 0 0 0 0 0 0 0 0
0 0 0 0 0 0 0 0 0 0 0 0 0 0 0 0 0 0 0 0 0 0 0 0 0 0 0 0 0 0 0 0 0 0 0 0 0 0 0 0 0 0 0 0
0 0 0 0 0 0 0 0 0 0 0 0 0 0 0 0 0 0 0 0 0 0 0 0 0 0 0 0 0 0 0 0 0 0 0 0 0 0 0 0 0 0 0 0
0 0 0 0 0 0 0 0 0 0 0 0 0 0 0 0 0 0 0 0 0 0 0 0 0 0 0 0 0 0 0 0 0 0 0 0 0 0 0 0 0 0 0 0
0 0 0 0 0 0 0 0 0 0 0 0 0 0 0 0 0 0 0 0 0 0 0 0 0 0 0 0 0 0 0 0 0 0 0 0 0 0 0 0 0 0 0 0
0 0 0 0 0 0 0 0 0 0 0 0 0 0 0 0 0 0 0 0 0 0 0 0 0 0 0 0 0 0 0 0 0 0 0 0 0 0 0 0 0 0 0 0
0 0 0 0 0 0 0 0 0 0 0 0 0 0 0 0 0 0 0 0 0 0 0 0 0 0 0 0 0 0 0 0 0 0 0 0 0 0 0 0 0 0 0 0
0 0 0 0 0 0 0 0 0 0 0 0 0 0 0 0 0 0 0 0 0 0 0 0 0 0 0 0 0 0 0 0 0 0 0 0 0 0 0 0 0 0 0 0
0 0 0 0 0 0 0 0 0 0 0 0 0 0 0 0 0 0 0 0 0 0 0 0 0 0 0 0 0 0 0 0 0 0 0 0 0 0 0 0 0 0 0 0
0 0 0 0 0 0 0 0 0 0 0 0 0 0 0 0 0 0 0 0 0 0 0 0 0 0 0 0 0 0 0 0 0 0 0 0 0 0 0 0 0 0 0 0
0 0 0 0 0 0 0 0 0 0 0 0 0 0 0 0 0 0 0 0 0 0 0 0 0 0 0 0 0 0 0 0 0 0 0 0 0 0 0 0 0 0 0 0
0 0 0 0 0 0 0 0 0 0 0 0 0 0 0 0 0 0 0 0 0 0 0 0 0 0 0 0 0 0 0 0 0 0 0 0 0 0 0 0 0 0 0 0
0 0 0 0 0 0 0 0 0 0 0 0 0 0 0 0 0 0 0 0 0 0 0 0 0 0 0 0 0 0 0 0 0 0 0 0 0 0 0 0 0 0 0 0
0 0 0 0 0 0 0 0 0 0 0 0 0 0 0 0 0 0 0 0 0 0 0 0 0 0 0 0 0 0 0 0 0 0 0 0 0 0 0 0 0 0 0 0
0 0 0 0 0 0 0 0 0 0 0 0 0 0 0 0 0 0 0 0 0 0 0 0 0 0 0 0 0 0 0 0 0 0 0 0 0 0 0 0 0 0 0 0
0 0 0 0 0 0 0 0 0 0 0 0 0 0 0 0 0 0 0 0 0 0 0 0 0 0 0 0 0 0 0 0 0 0 0 0 0 0 0 0 0 0 0 0
0 0 0 0 0 0 0 0 0 0 0 0 0 0 0 0 0 0 0 0 0 0 0 0 0 0 0 0 0 0 0 0 0 0 0 0 0 0 0 0 0 0 0 0
Wind_Speed
1 2 4 7 7 3 2 3 4 4 2 1 5 9 11 6 3 4 4 4 5 5 5 3 3 2 2 1 1 0 1 0 2 1 1 1 1 1 1 1 2 2 2 2
2 5 6 2 3 2 2 2 4 4 2 2 4 9 8 5 4 4 4 5 5 4 4 4 3 3 2 1 1 0 1 1 2 1 1 1 1 1 1 1 1 1 1 2
6 3 2 3 3 3 4 5 5 4 4 2 3 7 4 3 2 2 2 3 3 3 4 4 3 3 2 2 1 1 1 1 1 1 2 2 2 2 1 1 1 0 1 2
4 3 2 3 3 5 5 4 4 2 1 3 1 6 6 3 4 3 3 3 3 4 3 3 2 3 2 2 1 1 0 1 1 2 2 2 2 1 1 1 1 1 1 1
4 1 3 5 5 5 4 1 2 2 2 3 1 4 9 2 4 4 3 3 3 3 3 3 3 2 2 2 2 1 1 2 1 1 2 2 1 0 1 1 1 1 0 1
3 1 2 3 1 4 3 3 3 3 2 4 4 5 8 3 4 3 2 2 3 4 3 3 3 3 3 3 3 2 2 2 1 1 1 1 1 1 1 1 1 0 0 0
3 2 1 1 2 2 3 4 2 4 2 6 2 4 9 5 3 3 4 3 3 3 3 3 4 4 3 4 3 3 2 2 2 1 1 1 1 2 2 1 1 1 0 0
1 5 3 2 3 4 4 5 6 5 5 5 2 7 7 3 2 1 1 1 2 2 2 3 3 2 3 3 3 3 2 2 2 1 0 0 1 1 0 0 1 1 1 1
4 5 1 1 1 5 4 4 3 3 0 3 6 6 7 2 1 1 1 2 2 2 2 2 3 3 3 3 3 3 2 3 2 2 1 1 1 0 0 0 0 0 1 0
4 4 2 1 1 1 2 4 3 4 3 5 6 6 5 4 4 2 1 2 2 2 2 3 3 3 3 2 2 3 3 2 2 2 2 1 1 1 1 0 0 0 1 0
2 3 2 0 4 5 3 3 3 3 3 4 5 7 4 5 3 3 3 2 2 1 2 2 2 3 3 3 3 3 3 3 3 3 2 2 2 1 1 1 1 1 1 0
2 3 3 5 3 2 4 5 5 5 5 4 4 8 2 2 1 1 2 2 1 1 2 2 2 2 3 3 3 3 3 3 3 3 2 2 2 2 2 2 2 1 1 1
4 4 0 3 2 1 2 3 4 3 2 4 5 9 1 1 1 1 1 2 1 1 2 2 1 2 2 2 2 3 3 3 3 3 2 2 2 2 2 2 2 2 1 1
4 4 7 9 6 4 4 5 5 5 5 6 10 10 7 5 4 3 2 2 2 2 2 2 1 1 2 2 2 2 3 3 3 3 2 3 3 2 2 2 2 1 1 1
3 4 5 6 5 4 6 8 8 10 11 11 11 11 11 7 6 4 3 2 2 2 2 2 1 2 2 2 2 2 3 3 2 2 2 2 3 3 2 2 2 1 1 1
2 3 2 5 5 5 8 10 11 12 11 12 12 14 8 4 3 3 3 3 3 3 2 2 1 2 2 3 3 3 3 3 2 2 2 2 3 3 2 2 2 2 2 2
3 4 2 5 3 2 11 11 11 8 8 8 12 12 4 4 5 5 5 4 4 3 2 2 2 2 2 2 2 2 2 2 2 2 2 3 2 2 2 2 3 2 2 2
6 5 3 2 1 9 9 3 7 9 9 8 7 6 5 6 5 4 3 3 3 3 2 2 2 2 2 2 2 2 2 2 2 2 2 3 3 2 3 2 2 2 2 2
6 6 4 3 5 10 9 4 5 6 8 7 8 7 4 1 2 3 2 2 3 3 2 2 2 1 1 1 2 1 1 1 1 2 2 2 2 2 2 2 2 2 2 1
2 4 4 4 5 9 7 2 2 2 7 4 5 5 3 2 3 5 2 2 1 1 1 1 0 0 1 2 1 1 1 1 2 3 3 3 2 2 2 2 2 1 1 1
4 4 6 7 7 11 7 2 4 5 7 2 4 4 5 6 6 2 1 1 1 1 1 1 1 0 1 1 1 0 1 2 3 3 3 3 2 2 2 2 1 1 1 1
9 7 7 6 7 12 3 6 7 6 1 1 3 3 4 4 2 1 2 2 1 1 0 1 1 1 1 1 1 1 2 3 2 2 2 2 2 2 1 1 1 1 1 0
8 9 7 10 9 4 4 5 3 1 2 3 3 3 3 3 3 2 2 2 2 2 1 1 1 1 1 1 1 2 3 2 2 2 2 2 2 2 1 1 0 0 0 0
4 2 3 5 8 6 5 4 3 3 4 4 3 3 3 4 3 3 3 3 2 2 2 1 1 2 2 2 1 2 2 2 1 2 2 2 2 2 1 1 1 1 1 1
6 4 4 7 6 4 5 6 5 4 3 3 2 3 3 3 4 4 3 3 3 2 2 2 2 3 3 2 2 2 1 1 1 2 2 2 1 1 1 1 1 1 2 2
5 6 7 8 5 5 6 4 4 4 4 4 3 3 3 3 4 4 3 3 3 3 2 2 3 3 3 3 3 2 1 1 1 2 2 1 1 1 1 1 2 3 3 4
Wind_Direction
63 99 211 213 208 210 186 200 254 264 288 256 249 268 281 287 284 275 281 285 284 281 295 329 338 342 6 9 6 103 152 123 128 122 135 147 165 162 154 147 144 164 161 156
76 248 238 188 183 195 204 244 271 293 311 241 278 281 277 274 260 254 261 272 279 296 322 338 350 7 11 0 338 291 188 181 173 165 154 155 145 148 146 113 113 143 169 161
196 245 173 156 173 196 220 216 237 263 330 336 322 302 283 287 296 302 291 281 297 300 305 320 339 347 357 351 316 273 236 163 163 108 103 81 80 70 76 83 121 138 163 163
243 268 171 175 201 183 241 225 216 244 313 293 0 293 286 279 306 312 315 326 324 327 319 318 334 350 347 319 321 328 353 91 105 116 125 125 141 160 198 175 158 121 122 129
248 232 184 205 219 180 222 174 165 197 215 288 255 244 282 297 289 297 308 315 324 338 339 338 340 337 349 350 355 3 43 56 58 111 141 146 126 109 95 104 120 118 119 105
252 249 206 223 212 173 147 77 62 53 77 266 225 206 274 244 247 276 292 313 329 340 345 351 359 11 10 12 15 22 47 51 53 88 115 147 151 131 118 109 154 156 279 9
300 262 248 147 103 107 128 111 33 352 340 253 222 216 252 254 244 247 265 293 318 335 348 358 4 7 5 12 14 17 33 32 35 71 101 166 173 159 171 194 203 189 214 269
254 277 232 197 181 176 182 156 168 204 231 277 254 236 255 256 267 270 258 284 344 356 359 1 356 354 355 5 13 16 22 17 19 32 11 47 73 126 158 222 231 218 219 234
196 256 299 214 223 147 158 200 177 146 165 275 262 274 293 263 274 312 18 24 359 344 349 355 358 357 356 359 4 9 21 19 15 6 18 36 42 59 48 217 205 256 278 263
177 251 286 312 54 354 170 151 126 155 189 249 271 258 248 254 252 271 304 312 319 335 346 351 353 348 348 355 1 12 20 21 18 14 11 20 15 1 352 62 87 293 315 342
176 198 292 353 198 196 146 159 176 173 188 195 251 259 229 220 220 224 256 281 290 308 326 332 335 345 352 2 14 17 15 13 13 11 14 19 11 9 21 17 355 344 348 315
176 157 239 245 241 202 180 187 167 182 230 216 242 264 282 214 214 211 265 301 301 308 313 312 323 348 3 3 4 9 9 11 1 359 17 26 18 19 25 9 3 11 6 2
152 150 248 323 310 213 222 214 199 197 184 203 224 261 312 28 355 309 302 323 325 323 312 316 335 351 355 357 356 0 2 357 359 6 13 20 21 22 13 360 5 10 11 10
153 178 195 215 225 192 224 230 205 188 214 232 234 255 276 287 288 292 297 303 310 300 298 305 328 351 356 360 356 354 352 352 2 14 18 14 3 357 351 360 6 7 17 14
157 215 229 250 258 228 231 235 220 218 220 228 247 251 260 252 253 258 257 262 280 289 298 308 330 348 351 357 354 352 347 352 2 17 12 356 350 351 359 10 6 18 30 27
164 210 222 265 253 254 258 246 231 232 232 240 257 262 264 261 249 245 236 233 252 265 282 307 334 340 340 345 342 342 342 347 1 8 355 350 355 359 4 5 10 23 27 31
181 170 190 259 287 319 263 231 216 221 214 208 235 250 257 258 247 238 232 229 238 251 264 275 287 300 317 324 328 317 327 342 0 5 357 352 352 355 358 2 15 16 11 25
178 173 192 237 60 241 249 194 201 219 234 223 239 259 240 241 250 252 223 209 238 255 265 271 279 298 310 317 322 323 345 358 4 5 357 350 347 348 355 4 6 359 359 8
193 175 175 180 232 268 283 242 186 200 249 221 230 253 261 292 313 269 237 212 221 234 243 251 254 272 300 314 322 329 355 5 356 337 334 336 338 341 345 346 344 343 349 359
170 171 173 180 208 241 253 219 185 148 263 221 202 231 225 155 242 255 216 219 245 240 211 232 278 15 332 318 325 1 355 340 317 318 321 326 328 329 323 317 324 335 339 334
163 185 202 211 232 257 256 200 137 186 253 217 198 211 196 204 228 236 179 221 223 209 200 150 140 221 283 305 322 325 323 304 311 326 334 337 335 325 318 324 332 348 2 358
181 181 198 187 217 249 202 148 186 221 273 194 209 214 210 226 241 223 200 205 208 218 212 169 179 261 305 304 256 263 285 300 323 332 333 329 327 320 325 328 342 4 13 354
200 195 190 196 217 239 178 197 217 207 233 240 227 231 206 225 239 233 228 225 232 226 236 214 197 264 306 299 262 257 287 312 323 327 320 317 319 322 331 320 324 344 314 275
242 209 194 240 253 251 250 254 264 253 241 249 236 223 210 227 228 229 226 227 233 234 228 216 203 240 274 290 288 272 291 304 297 297 306 310 316 326 333 313 276 245 238 233
219 185 209 247 264 285 261 242 247 255 258 264 265 251 226 212 230 227 228 229 230 240 243 225 221 235 254 267 277 286 289 271 264 275 287 293 296 295 303 302 275 264 246 226
201 193 206 240 235 230 254 254 252 248 251 246 244 260 250 222 226 224 231 232 230 235 244 241 236 243 256 261 268 277 262 214 219 255 270 267 267 278 284 296 314 302 285 276